Regional Weather Roundup
Issued by NWS

Home | Current Version | Previous Version | Text Only | Print | Product List | Glossary On
Versions: 1 2 3 4 5 6 7 8 9 10 11 12 13 14 15 16 17 18 19 20 21 22 23 24 25 26 27 28 29 30 31 32 33 34 35 36 37 38 39 40 41 42 43 44 45 46 47 48 49 50
000
ASUS43 KLSX 041959
RWRMO

WEATHER SUMMARY FOR MISSOURI
NATIONAL WEATHER SERVICE SPRINGFIELD MO
300 PM CDT MON MAY 04 2015

NOTE: "FAIR" INDICATES FEW OR NO CLOUDS BELOW 12,000 FEET WITH NO
       SIGNIFICANT WEATHER AND/OR OBSTRUCTIONS TO VISIBILITY.
       CURRENT SKY AND/OR WEATHER CONDITIONS ARE NOT AVAILABLE FOR
       CHILLICOTHE AND FARMINGTON.

MOZ001>031-035>038-043-044-053-054-042100-
...NORTHERN AND WESTERN MISSOURI...

CITY           SKY/WX    TMP DP  RH WIND       PRES   REMARKS
KANSAS CTY INT CLOUDY    81  64  56 SE10      30.03F
KANSAS C DTWN  MOSUNNY   83  60  45 S7        30.01F
LEE`S SUMMIT   PTSUNNY   81  61  50 S8G17     30.04F
ST JOSEPH      PTSUNNY   81  58  45 VRB6      30.02F
CHILLICOTHE      N/A     78  64  61 S6        30.05F
KIRKSVILLE     CLOUDY    75  62  64 S10       30.07S

$$
MOZ066>068-077>081-088>096-101>105-042100-
...SOUTHWEST MISSOURI...

CITY           SKY/WX    TMP DP  RH WIND       PRES   REMARKS
SPRINGFIELD    MOSUNNY   80  60  50 S12       30.10F
JOPLIN         PTSUNNY   80  62  54 S10       30.09F

$$
MOZ032>034-039>042-045>050-055>058-069>072-042100-
...CENTRAL MISSOURI...

CITY           SKY/WX    TMP DP  RH WIND       PRES   REMARKS
COLUMBIA       CLOUDY    79  60  52 S8        30.08F
JEFFERSON CITY CLOUDY    82  57  42 VRB5      30.07F
ROLLA          PTSUNNY   81  60  48 SW13      30.09F
SEDALIA        PTSUNNY   80  62  54 S9G17     30.08F
OSAGE BEACH    MOSUNNY  N/A N/A N/A S10       30.09S

$$
MOZ051-052-059>065-042100-
...EAST CENTRAL MISSOURI...

CITY           SKY/WX    TMP DP  RH WIND       PRES   REMARKS
ST LOUIS INTL  CLOUDY    84  58  40 W7        30.10F
SPIRIT OF STL  CLOUDY    81  58  45 SW5       30.08F
ST CHARLES     CLOUDY    83  57  41 SW13      30.07F

$$
MOZ072>076-082>087-097>100-106>115-042100-
...SOUTH CENTRAL AND SOUTHEAST MISSOURI...

CITY           SKY/WX    TMP DP  RH WIND       PRES   REMARKS
CAPE GIRARDEAU SUNNY     85  53  33 SW18G28   30.13F
FARMINGTON     MOSUNNY   82  55  39 S12       30.17S
POPLAR BLUFF   LGT RAIN  83  53  35 SW14G21   30.12F
WEST PLAINS    PTSUNNY   78  54  43 S10       30.15F

$$



USA.gov is the U.S. government's official web portal to all federal, state and local government web resources and services.